Regional Weather Roundup
Issued by NWS Portland, ME

Home | Current Version | Previous Version | Text Only | Print | Product List | Glossary On
Versions: 1 2 3 4 5 6 7 8 9 10 11 12 13 14 15 16 17 18 19 20 21 22 23 24 25 26 27 28 29 30 31 32 33 34 35 36 37 38 39 40 41 42 43 44 45 46 47 48 49 50
000
ASUS41 KGYX 011210
RWRGYX
WEATHER ROUNDUP FOR MAINE AND NEW HAMPSHIRE
NATIONAL WEATHER SERVICE GRAY ME
800 AM EDT FRI AUG 01 2014

MEZ002-005-006-010-012-015-018-020-021-024-026-027-029-011300-
MAINE

CITY           SKY/WX    TMP DP  RH WIND       PRES   REMARKS
PORTLAND       MOSUNNY   66  62  87 CALM      30.20S
6HR MIN TEMP:  61; 6HR MAX TEMP:  66;

SANFORD        SUNNY     66  61  82 SW3       30.21R
BAR HARBOR     CLOUDY    63  61  94 CALM      30.22R
WISCASSET      SUNNY     66  63  90 CALM      30.21R
6HR MIN TEMP:  58; 6HR MAX TEMP:  66;

ROCKLAND       SUNNY     66  63  88 CALM      30.19S
FRYEBURG       SUNNY     62  58  86 CALM      30.22R
6HR MIN TEMP:  53; 6HR MAX TEMP:  62;

LEWISTONAUBURN CLOUDY    61  57  88 N3        30.21R
AUGUSTA        CLOUDY    62  61  96 CALM      30.21R FOG
6HR MIN TEMP:  57; 6HR MAX TEMP:  62;

WATERVILLE     CLOUDY    61  59  94 CALM      30.18R VSB 1/2
BANGOR         CLOUDY    63  61  93 S5        30.22R FOG
6HR MIN TEMP:  61; 6HR MAX TEMP:  63;

GREENVILLE       N/A     60  59  96 CALM      30.20R
6HR MIN TEMP:  53; 6HR MAX TEMP:  61;

MILLINOCKET    CLOUDY    61  60  97 CALM      30.23R FOG
6HR MIN TEMP:  57; 6HR MAX TEMP:  61;

HOULTON        CLOUDY    61  59  93 SW5       30.21R
6HR MIN TEMP:  56; 6HR MAX TEMP:  61;

PRESQUE ISLE   CLOUDY    57  54  88 SE3       30.21R
6HR MIN TEMP:  52; 6HR MAX TEMP:  57;

FRENCHVILLE    FOG       55  55 100 S10       30.18R VSB<1/4
6HR MIN TEMP:  53; 6HR MAX TEMP:  56;

CARIBOU        CLOUDY    59  58  96 S6        30.19R FOG
6HR MIN TEMP:  54; 6HR MAX TEMP:  59;

$$

NHZ002-005-008-009-011-012-014-011300-
NEW HAMPSHIRE

CITY           SKY/WX    TMP DP  RH WIND       PRES   REMARKS
PORTSMOUTH     MOSUNNY   66  63  90 VRB3      30.20R FOG
ROCHESTER      SUNNY     65  62  90 CALM      30.21R
6HR MIN TEMP:  58; 6HR MAX TEMP:  65;

NASHUA         SUNNY     65  63  93 CALM      30.22R
MANCHESTER     FOG       63  62  97 CALM      30.20R VSB 1/2
6HR MIN TEMP:  60; 6HR MAX TEMP:  64;

CONCORD        FOG       60  60 100 CALM      30.22R VSB<1/4
6HR MIN TEMP:  58; 6HR MAX TEMP:  62;

LACONIA          N/A     63  59  88 SW7       30.21R
PLYMOUTH       FOG       56  55  97 CALM      30.22S VSB 1/4
BERLIN         FOG       53  53 100 CALM      30.23R VSB 1/4
6HR MIN TEMP:  51; 6HR MAX TEMP:  55;

WHITEFIELD     SUNNY     57  53  86 CALM      30.22R
6HR MIN TEMP:  46; 6HR MAX TEMP:  57;

JAFFREY        CLOUDY    65  63  93 VRB5      30.24R FOG
6HR MIN TEMP:  56; 6HR MAX TEMP:  65;

LEBANON        CLOUDY    63  59  87 CALM      30.21R
6HR MIN TEMP:  55; 6HR MAX TEMP:  63;

MT WASHINGTON  FOG       45  45 100 W25         N/A  VSB 0
6HR MIN TEMP:  42; 6HR MAX TEMP:  46;

$$

VTZ005-007-008-011300-
VERMONT

CITY           SKY/WX    TMP DP  RH WIND       PRES   REMARKS
ST JOHNSBURY     N/A     56  55  97 MISG      30.20R
MONTPELIER     MOSUNNY   56  55  97 CALM      30.24R FOG
BURLINGTON     MOSUNNY   65  59  81 E3        30.17R
$$

MAZ007-012-024-CTZ003-RIZ002-NYZ038-NYZ072-011300-
SOUTHERN NEW ENGLAND AND NY

CITY           SKY/WX    TMP DP  RH WIND       PRES   REMARKS
BOSTON         PTSUNNY   70  64  81 VRB6      30.21R
WORCESTER      CLOUDY    68  64  87 SW7       30.23S
NANTUCKET      MOSUNNY   68  65  90 SE8       30.24R
PROVIDENCE     PTSUNNY   72  66  81 CALM      30.22R
HARTFORD       CLOUDY    72  65  78 SW3       30.20R
ALBANY         PTSUNNY   66  62  87 SW3       30.19R
NEW YORK CITY  PTSUNNY   75  65  70 CALM      30.18R
$$

ANZ081-ANZ082-ANZ150-NHZ014-MEZ023>029-011300-
COASTAL MARINE OBSERVATIONS

STATION/POSITION TIME  TEMP    WIND        PRES    WAVE
                       AIR SEA DIR/SP/G            HT/PER
                 (UTC) (F)     (DEG/KT/KT) (MB)    (FT/S)
MOUNT DESERT ROC 1100   61                 1022.6
MATINICUS ROCK   1200          180/  3/  3 1022.8R
PORTLAND WX BUOY 1200   63 62  220/  4/  6 1022.8R   2/ 8
WELLS            1200   67 59  120/  1/  2 1021.9R
ISLE OF SHOALS   1200   64     210/ 11/ 11 1022.6R
JEFFREYS LEDGE   1200      65                N/A     3/ 8
CASHES LEDGE BUO 1200   68 67  220/  4/  6 1022.6R   3/ 8
$$

.............KEY..............
   WCI - WIND CHILL
   TC  - TEMPERATURE IN CELSIUS
   VSB - VISIBILITY IN MILES
   HX  - HEAT INDEX
   FAIR- INDICATES FEW OR NO CLOUDS BELOW 12,000 FT, WITH NO
         SIGNIFICANT WEATHER AND/OR OBSTRUCTIONS TO VISIBILITY.




USA.gov is the U.S. government's official web portal to all federal, state and local government web resources and services.